Location: Browne Barr
(41.2080°N, 111.9480°W)
Time: 05:43:24
(UTC+00:00)

X-37B - Pass Details

Date: 08 August 2021
Orbit: 381 x 393 km, 45.0° (Epoch: 29 August)

Event Time Altitude Azimuth Distance (km) Brightness Sun altitude
Exits shadow 09:18:50 12° 65° (ENE) 1,277 3.8 -27.8°
Drops below altitude 10° 09:19:08 10° 66° (ENE) 1,397 4.0 -27.8°
Sets 09:21:13 0° 70° (ENE) 2,251 5.2 -27.6°
